Regional Weather Roundup
Issued by NWS Upton, NY

Current Version | Previous Version | Text Only | Print | Product List | Glossary On
Versions: 1 2 3 4 5 6 7 8 9 10 11 12 13 14 15 16 17 18 19 20 21 22 23 24 25 26 27 28 29 30 31 32 33 34 35 36 37 38 39 40 41 42 43 44 45 46 47 48 49 50
864
ASUS41 KOKX 180409
RWROKX

Regional Weather Roundup
National Weather Service New York NY
1100 PM EST WED JAN 17 2018

Note: "FAIR" indicates few or no clouds below 12,000 feet with no
significant weather and/or obstructions to visibility.

NYZ071-072-176-178-NJZ106-104-180500-
New York City Metro Area

CITY           SKY/WX    TMP DP  RH WIND       PRES   REMARKS
Central Park   CLOUDY    23  10  57 VRB3      30.19F
Bronx Bot Gard   N/A     23  12  63 N3        30.19F
Bronx Lehman C   N/A     23  12  63 NW6         N/A  WCI  16
LaGuardia Arpt MOCLDY    24  12  60 NW13      30.17F WCI  12
Queens College   N/A     25  14  63 NW9         N/A  WCI  15
Kennedy Intl   MOCLDY    24  15  68 NW15      30.18F WCI  11
Breezy Point     N/A    N/A N/A N/A N13         N/A
Brooklyn Coll    N/A     25  12  58 NW12        N/A  WCI  14
Staten Island    N/A     23  10  58 NW13        N/A  WCI  11
Newark/Liberty FAIR      22   9  57 NW15G22   30.19F WCI   9
Teterboro      CLOUDY    22   9  57 NW12      30.17F WCI  10
$$

NYZ177-179-078>081-180500-
Long Island New York

CITY           SKY/WX    TMP DP  RH WIND       PRES   REMARKS
Jones Beach      N/A    N/A N/A N/A NW15        N/A
Wantagh          N/A     27  19  74 NW6         N/A  WCI  20
Matinecock Pt    N/A    N/A N/A N/A NW16        N/A
Farmingdale    CLOUDY    26  20  77 NW8       30.15S WCI  18
MacArthur/ISP  CLOUDY    28  20  71 N13       30.12F WCI  17
Shirley        FAIR      26  20  77 NW15      30.13F WCI  14
Mt Sinai Harb    N/A    N/A N/A N/A N10G20      N/A
Westhampton    FAIR      27  20  75 NW10      30.13F WCI  17
East Hampton   MOCLDY    29  25  86 NW10      30.08F WCI  20
Southold         N/A     28  23  80 NW12        N/A  WCI  18
Montauk          N/A     35  30  82 NW9       30.08F WCI  28
$$

NYZ052-065-067-180500-
Hudson Valley

CITY           SKY/WX    TMP DP  RH WIND       PRES   REMARKS
White Plains   MOCLDY    23  18  81 NW10      30.13S WCI  12
Larchmont Harb   N/A    N/A N/A N/A W10         N/A
Croton On Huds   N/A    N/A N/A N/A NW5         N/A
Somers           N/A     19  16  86 N2          N/A
Brewster         N/A     18  12  79 N5          N/A  WCI  11
Newburgh       PTCLDY    14   9  79 VRB5      30.15F WCI   6
Montgomery     FAIR      17   6  62 NW8       30.14F WCI   7
Otisville        N/A     14   9  79 S5          N/A  WCI   6
Warwick          N/A     16   9  73 W3          N/A
Suffern          N/A     19  10  68 NW6         N/A  WCI  11
Poughkeepsie   FAIR      14  10  84 CALM      30.17F
Albany         FAIR      14   6  70 NW6       30.18F WCI   5
$$

NJZ001-105-106-008-010-013-015-019>022-104-180500-
New Jersey

CITY           SKY/WX    TMP DP  RH WIND       PRES   REMARKS
Newark/Liberty FAIR      22   9  57 NW15G22   30.19F WCI   9
Teterboro      CLOUDY    22   9  57 NW12      30.17F WCI  10
Caldwell       FAIR      19   8  62 W6        30.20S WCI  11
Somerville     FAIR      18  10  71 CALM      30.19F
Linden         FAIR      22   9  58 NW9       30.20F WCI  12
Perth Amboy      N/A    N/A N/A N/A NW12        N/A
Sussex         FAIR      11   6  81 SE5       30.16F WCI   3
Andover        NOT AVBL
Trenton        FAIR      20   9  62 NW5       30.21S WCI  13
Millville      FAIR      23  13  65 NW9       30.22F WCI  13
Atlantic City  FAIR      24  12  60 NW17G24   30.20F WCI  11
Wrightstown    FAIR      20  11  66 NW8       30.18R WCI  11
Toms River     FAIR      22  13  68 NW8       30.21R WCI  12
Belmar         FAIR      22  11  62 NW14      30.19S WCI   9
$$

PAZ047>061-062-071-180500-
Eastern Pennsylvania

CITY           SKY/WX    TMP DP  RH WIND       PRES   REMARKS
Philadelphia   FAIR      22   9  57 NW10      30.25F WCI  11
Allentown      FAIR       9   2  73 SW7       30.21S WCI  -2
Scranton       FAIR       8   5  87 SW3       30.16F
$$

CTZ002-004>006-009-010-012-RIZ004-006-007-MAZ004-011-015-180500-
Southern New England

 In CT

CITY           SKY/WX    TMP DP  RH WIND       PRES   REMARKS
Bradley Intl   FAIR      20  11  68 NW12      30.14R WCI   8
Hartford       FAIR      23  12  62 N8G16     30.16R WCI  14
Danbury        FAIR      20  11  68 CALM      30.16R
Wtrbury/Oxford FAIR      16  12  84 N3        30.11S
Norwalk Harbor   N/A    N/A N/A N/A NW10        N/A
Bridgeport     FAIR      24  13  62 NW8       30.15S WCI  15
Meriden        FAIR      20  12  71 VRB5      30.15S WCI  13
New Haven      FAIR      24  13  62 NW9       30.14S WCI  14
Chester        FAIR      23  16  74 CALM      30.10S
Groton         MOCLDY    30  25  81 NW10      30.09S WCI  21
Willimantic    CLOUDY    26  20  77 VRB5      30.12S WCI  20

 In RI

CITY           SKY/WX    TMP DP  RH WIND       PRES   REMARKS
Providence     CLOUDY    34  31  88 NW9       30.08R WCI  27
Block Island   CLOUDY    33  32  96 NW10G17   30.08F WCI  25
Westerly       CLOUDY    33  31  92 NW5       30.09F FOG     WCI  29

In MA

CITY           SKY/WX    TMP DP  RH WIND       PRES   REMARKS
Boston         FLURRIES  32  30  92 NW10      30.07F WCI  24
Worcester      CLOUDY    26  22  84 W10       30.03F WCI  16
Westfield      FAIR      15   9  76 N8        30.12S WCI   4
Provincetown   CLOUDY    34  33  96 NW15        N/A  WCI  24
Nantucket      CLOUDY    34  34 100 NW8       30.05R WCI  27
$$

ANZ330-335-338-340-345-350-353-355-180500-
Coastal Marine Observations


STATION/POSITION TIME  SKY/WX   TEMP    WIND        PRES    VSBY  WAVE
                                AIR SEA DIR/SP/G                  HT/PER
                 (UTC)          (F)     (DEG/KT/KT) (MB)    (MI)  (FT/S)
NY Harb Entrance 0250            27 41  310/ 17/ 21 1021.1          4/11
20 S Fire Island 0250            31 42  330/ 16/ 21 1020.5          5/11
15 E Barnegat Li 0330               42                N/A           5/11
Hudson Canyon    0250            38 50  320/ 17/ 19 1018.9          5/11
Kings Point      0348               32  360/ 12/ 13 1022.6
Execution Rocks  NOT AVBL
Western LI Sound NOT AVBL
Central LI Sound 0300            29     330/ 14/ 17   N/A           2
Robbins Reef     0348            22     330/ 14/ 18 1022.6
$$


>>>>>>>>>>>>>>>>>>>>>>>>>>>> KEY <<<<<<<<<<<<<<<<<<<<<<<<<<<
>                                                          <
>     SKY/WX - Sky Condition/Present Weather               <
>     TMP    - Temperature in Fahrenheit                   <
>     DP     - Dew Point in Fahrenheit                     <
>     RH     - Relative Humidity in Percent                <
>     WIND   - Direction (from) and Speed in MPH           <
>     PRES   - Mean Sea Level Pressure (inches of Hg)      <
>     WCI    - Wind Chill Index                            <
>     VSB    - Visibility in Miles                         <
>     HX     - Heat Index                                  <
>     TC     - Temperature in Celsius                      <
>     VRB    - Varibale Wind Direction                     <
>                                                          <
>>>>>>>>>>>>>>>>>>>>>>>>>>>> KEY <<<<<<<<<<<<<<<<<<<<<<<<<<<




USA.gov is the U.S. government's official web portal to all federal, state and local government web resources and services.